Tracking 30922 objects as of 2-Jul-2025
HD Live streaming from Space Station
objects crossing your sky now

STARLINK-2338

Track STARLINK-2338 now!
10-day predictions
STARLINK-2338 is classified as:


NORAD ID: 47793
Int'l Code: 2021-018G
Perigee: 553.5 km
Apogee: 555.1 km
Inclination: 53.1 °
Period: 95.6 minutes
Semi major axis: 6925 km
RCS: Unknown
Launch date: March 11, 2021
Source: United States (US)
Launch site: AIR FORCE EASTERN TEST RANGE (AFETR)
Your satellite tracking list
Your tracking list is empty




NASA's NSSDC Master Catalog

Two Line Element Set (TLE):
1 47793U 21018G   25182.52799384  .00001339  00000-0  10877-3 0  9999
2 47793  53.0553 279.1280 0001137  87.6717 272.4402 15.06404933238672
Source of the keplerian elements: AFSPC